Location: USNO
(38.9242°N, 77.0663°W)
Time: 22:14:14
(UTC-04:00)

Envisat - Pass Details

Date: 14 October 2017
Orbit: 764 x 766 km, 98.2° (Epoch: 17 October)

Event Time Altitude Azimuth Distance (km) Brightness Sun altitude
Exits shadow 22:00:14 18° 303° (WNW) 1,830 5.5 -40.7°
Drops below altitude 10° 22:01:58 10° 319° (NW) 2,307 6.0 -41.0°
Sets 22:04:42 0° 333° (NNW) 3,237 6.8 -41.4°
